SXM-9

Last updated on Tue Sep 22 2026 00:03:16 GMT+0000 (Coordinated Universal Time)

1 62259U 24234A 26264.54349759 -.00000209 00000+0 00000+0 0 9995 2 62259 0.0211 281.1151 0004092 35.0459 154.7793 1.00271464 6546
UTC large
Height (km)
Speed (km/s)
/
Latitude / Longitude
Inclination (degrees)
Orbital Period (minutes)
Azimuth
Elevation
Range (km)
Doppler Factor

Next 0 passes for location: London (51.5072 / 0.1276)

No passes found over London.
SXM-9